K3RDE-13 Weather Reports


time (UTC)temp
C
wind
direction
speed
KPH
gust
KPH
rain 1hr
cm
rain 24hr
cm
rain mn
cm
humidity
%
barometer
mb
20260904160253 28 213 1.6 3.2 0.00 0.00 0.00 64 1012.7
20260904155753 28 204 3.2 4.8 0.00 0.00 0.00 62 1012.7
20260904155253 28 220 0.0 1.6 0.00 0.00 0.00 65 1012.6
20260904154751 27 220 1.6 3.2 0.00 0.00 0.00 69 1012.9
20260904154246 28 221 3.2 3.2 0.00 0.00 0.00 66 1012.9
20260904153741 27 301 1.6 4.8 0.00 0.00 0.00 65 1012.8
20260904153237 27 207 3.2 6.4 0.00 0.00 0.00 67 1012.9
20260904152734 27 218 1.6 3.2 0.00 0.00 0.00 67 1012.9
20260904152234 28 225 3.2 3.2 0.00 0.00 0.00 66 1012.7
20260904151728 27 237 3.2 4.8 0.00 0.00 0.00 67 1012.9
20260904151228 27 90 1.6 3.2 0.00 0.00 0.00 67 1012.6
20260904150724 27 201 1.6 4.8 0.00 0.00 0.00 65 1012.6
20260904150219 27 223 1.6 3.2 0.00 0.00 0.00 65 1012.7
20260904145717 27 233 1.6 4.8 0.00 0.00 0.00 66 1012.7
20260904145213 27 204 1.6 3.2 0.00 0.00 0.00 68 1012.8
20260904144708 27 197 3.2 3.2 0.00 0.00 0.00 67 1012.8
20260904144204 27 157 3.2 6.4 0.00 0.00 0.00 66 1012.8
20260904143659 27 179 1.6 3.2 0.00 0.00 0.00 73 1012.8
20260904143155 27 304 3.2 4.8 0.00 0.00 0.00 68 1013.0
20260904142652 26 218 3.2 4.8 0.00 0.00 0.00 72 1012.8
20260904142147 26 221 1.6 4.8 0.00 0.00 0.00 72 1012.9
20260904141642 26 184 1.6 4.8 0.00 0.00 0.00 73 1012.6
20260904141138 26 203 3.2 4.8 0.00 0.00 0.00 73 1012.7
20260904140633 26 144 3.2 3.2 0.00 0.00 0.00 74 1012.7
20260904140133 26 244 3.2 3.2 0.00 0.00 0.00 76 1012.6
20260904135632 26 240 1.6 4.8 0.00 0.00 0.00 75 1012.8
20260904135129 26 305 1.6 3.2 0.00 0.00 0.00 75 1012.7
20260904134624 26 219 1.6 4.8 0.00 0.00 0.00 75 1012.7
20260904134123 25 222 0.0 3.2 0.00 0.00 0.00 77 1012.7
20260904133619 25 226 1.6 3.2 0.00 0.00 0.00 78 1012.7
20260904133114 25 190 1.6 3.2 0.00 0.00 0.00 79 1012.6
20260904132614 25 189 3.2 4.8 0.00 0.00 0.00 76 1012.7
20260904132109 25 206 3.2 3.2 0.00 0.00 0.00 76 1012.8
20260904131608 25 211 1.6 1.6 0.00 0.00 0.00 79 1012.7
20260904131104 25 220 1.6 1.6 0.00 0.00 0.00 79 1012.9
20260904130603 25 80 0.0 0.0 0.00 0.00 0.00 78 1012.7
20260904130058 25 228 1.6 3.2 0.00 0.00 0.00 77 1012.9
20260904125555 25 147 1.6 3.2 0.00 0.00 0.00 76 1012.8
20260904125055 25 221 1.6 1.6 0.00 0.00 0.00 78 1012.9
20260904124550 25 221 1.6 1.6 0.00 0.00 0.00 78 1013.1
20260904124046 24 220 1.6 4.8 0.00 0.00 0.00 78 1013.0
20260904123546 23 221 0.0 1.6 0.00 0.00 0.00 80 1013.1
20260904123042 23 222 1.6 1.6 0.00 0.00 0.00 81 1013.1
20260904122542 23 221 1.6 3.2 0.00 0.00 0.00 82 1013.3
20260904122037 23 211 3.2 3.2 0.00 0.00 0.00 83 1013.1
20260904121532 22 193 1.6 3.2 0.00 0.00 0.00 85 1013.2
20260904121028 21 192 1.6 3.2 0.00 0.00 0.00 88 1013.3
20260904120524 21 187 1.6 1.6 0.00 0.00 0.00 90 1013.2
20260904120019 21 186 0.0 1.6 0.00 0.00 0.00 90 1013.0
20260904115515 21 186 0.0 1.6 0.00 0.00 0.00 91 1013.3
20260904115015 21 186 0.0 0.0 0.00 0.00 0.00 93 1013.2
20260904114510 20 186 0.0 0.0 0.00 0.00 0.00 94 1012.9
20260904114005 20 186 0.0 1.6 0.00 0.00 0.00 95 1012.9
20260904113504 20 186 0.0 0.0 0.00 0.00 0.00 96 1012.8
20260904113004 20 186 0.0 0.0 0.00 0.00 0.00 96 1012.8
20260904112459 20 186 0.0 1.6 0.00 0.00 0.00 97 1012.9
20260904111955 20 186 1.6 0.0 0.00 0.00 0.00 97 1012.9
20260904111450 20 186 0.0 0.0 0.00 0.00 0.00 97 1013.1
20260904110946 20 186 0.0 0.0 0.00 0.00 0.00 96 1013.1
20260904110445 20 186 0.0 0.0 0.00 0.00 0.00 96 1012.7
20260904105940 20 186 0.0 0.0 0.00 0.00 0.00 96 1012.6
20260904105435 20 186 0.0 1.6 0.00 0.00 0.00 96 1012.6
20260904104930 20 186 0.0 0.0 0.00 0.00 0.00 96 1012.4
20260904104430 20 186 0.0 0.0 0.00 0.00 0.00 95 1012.2
20260904103927 20 186 0.0 0.0 0.00 0.00 0.00 95 1012.4
20260904103422 20 186 0.0 0.0 0.00 0.00 0.00 94 1012.4
20260904102918 20 186 0.0 0.0 0.00 0.00 0.00 94 1012.1
20260904102414 20 185 0.0 0.0 0.00 0.00 0.00 94 1012.3
20260904101909 20 186 0.0 0.0 0.00 0.00 0.00 94 1012.1
20260904101406 20 186 0.0 0.0 0.00 0.00 0.00 94 1012.3
20260904100901 20 186 0.0 0.0 0.00 0.00 0.00 93 1012.2
20260904100357 20 186 0.0 0.0 0.00 0.00 0.00 93 1012.0
20260904095851 20 186 0.0 0.0 0.00 0.00 0.00 92 1011.9
20260904095346 20 186 0.0 0.0 0.00 0.00 0.00 92 1011.9
20260904094841 20 186 0.0 0.0 0.00 0.00 0.00 92 1012.0
20260904094336 21 186 0.0 0.0 0.00 0.00 0.00 92 1012.0
20260904093833 21 186 0.0 0.0 0.00 0.00 0.00 91 1011.9
20260904093332 21 186 0.0 0.0 0.00 0.00 0.00 92 1011.9
20260904092828 21 186 0.0 0.0 0.00 0.00 0.00 92 1011.9
20260904092324 21 186 0.0 1.6 0.00 0.00 0.00 91 1012.1
20260904091820 21 188 1.6 1.6 0.00 0.00 0.00 92 1012.0
20260904091321 21 187 3.2 4.8 0.00 0.00 0.00 93 1012.2
20260904090815 20 211 0.0 1.6 0.00 0.00 0.00 94 1012.0
20260904090312 20 248 0.0 0.0 0.00 0.00 0.00 94 1012.1
20260904085807 20 256 0.0 0.0 0.00 0.00 0.00 95 1012.2
20260904085305 20 256 1.6 1.6 0.00 0.00 0.00 94 1012.2
20260904084802 21 256 0.0 0.0 0.00 0.00 0.00 94 1012.2
20260904084258 21 231 0.0 0.0 0.00 0.00 0.00 94 1012.2
20260904083754 21 231 1.6 3.2 0.00 0.00 0.00 94 1012.3
20260904083251 20 225 1.6 1.6 0.00 0.00 0.00 94 1012.5
20260904082751 21 224 0.0 1.6 0.00 0.00 0.00 95 1012.5
20260904082245 21 224 0.0 0.0 0.00 0.00 0.00 94 1012.1
20260904081741 21 224 0.0 1.6 0.00 0.00 0.00 93 1012.3
20260904081237 21 264 0.0 0.0 0.00 0.00 0.00 92 1012.3
20260904080732 21 264 0.0 0.0 0.00 0.00 0.00 91 1012.7
20260904080228 21 264 0.0 0.0 0.00 0.00 0.00 91 1012.5
20260904075724 21 263 0.0 0.0 0.00 0.00 0.00 91 1012.5
20260904075219 21 263 0.0 0.0 0.00 0.00 0.00 91 1012.4
20260904074718 21 263 1.6 4.8 0.00 0.00 0.00 90 1012.3
20260904074212 21 237 1.6 3.2 0.00 0.00 0.00 91 1012.2
20260904073708 21 280 1.6 4.8 0.00 0.00 0.00 91 1012.2
20260904073205 21 248 0.0 1.6 0.00 0.00 0.00 91 1012.0
20260904072700 21 245 0.0 1.6 0.00 0.00 0.00 92 1012.1
20260904072200 21 244 0.0 4.8 0.00 0.00 0.00 91 1011.9
20260904071656 21 251 1.6 1.6 0.00 0.00 0.00 92 1011.9
20260904071151 21 250 1.6 1.6 0.00 0.00 0.00 93 1012.0
20260904070650 20 249 0.0 1.6 0.00 0.00 0.00 94 1011.9
20260904070149 20 250 0.0 0.0 0.00 0.00 0.00 95 1011.8
20260904065650 20 250 1.6 1.6 0.00 0.00 0.00 95 1011.7
20260904065148 20 251 0.0 0.0 0.00 0.00 0.00 95 1011.6
20260904064647 20 251 0.0 0.0 0.00 0.00 0.00 95 1011.5
20260904064142 21 251 1.6 1.6 0.00 0.00 0.00 95 1011.5
20260904063638 21 250 0.0 1.6 0.00 0.00 0.00 94 1011.3
20260904063134 21 250 0.0 0.0 0.00 0.00 0.00 94 1011.2
20260904062630 21 250 0.0 0.0 0.00 0.00 0.00 94 1011.1
20260904062125 21 250 0.0 0.0 0.00 0.00 0.00 94 1011.0
20260904061621 21 250 0.0 0.0 0.00 0.00 0.00 93 1011.0
20260904061117 21 250 0.0 0.0 0.00 0.00 0.00 92 1010.9
20260904060613 21 250 0.0 0.0 0.00 0.00 0.00 91 1010.9
20260904060110 21 251 0.0 1.6 0.00 0.00 0.00 92 1011.0
20260904055610 22 251 0.0 0.0 0.00 0.00 0.00 90 1011.1
20260904055105 22 251 0.0 0.0 0.00 0.00 0.00 89 1011.2
20260904054601 22 251 1.6 1.6 0.00 0.00 0.00 88 1011.0
20260904054056 22 250 0.0 0.0 0.00 0.00 0.00 88 1011.0
20260904053556 22 250 1.6 1.6 0.00 0.00 0.00 87 1011.0
20260904053051 22 251 0.0 0.0 0.00 0.00 0.00 86 1010.7
20260904052548 22 251 1.6 1.6 0.00 0.00 0.00 85 1011.0
20260904052043 23 250 0.0 0.0 0.00 0.00 0.00 84 1010.9
20260904051540 23 252 1.6 3.2 0.00 0.00 0.00 84 1011.3
20260904051039 23 260 0.0 1.6 0.00 0.00 0.00 85 1011.3
20260904050535 23 259 1.6 1.6 0.00 0.00 0.00 85 1011.1
20260904050031 23 258 1.6 1.6 0.00 0.00 0.00 85 1011.4
20260904045526 23 261 1.6 3.2 0.00 0.00 0.00 86 1011.4
20260904045021 23 283 1.6 1.6 0.00 0.00 0.00 86 1011.3
20260904044516 23 231 3.2 4.8 0.00 0.00 0.00 84 1011.4
20260904044013 23 254 1.6 1.6 0.00 0.00 0.00 86 1011.6
20260904043509 23 254 1.6 3.2 0.00 0.00 0.00 86 1011.6
20260904043004 24 209 4.8 12.9 0.00 0.00 0.00 84 1011.4
20260904042501 24 251 3.2 9.7 0.00 0.00 0.00 87 1011.7
20260904041955 24 260 1.6 6.4 0.00 0.00 0.00 91 1011.6
20260904041452 24 184 3.2 4.8 0.00 0.00 0.00 93 1011.8
20260904040947 23 244 6.4 6.4 0.00 0.00 0.00 94 1011.9
20260904040447 24 263 1.6 3.2 0.00 0.00 0.00 93 1011.7
20260904035943 24 263 1.6 1.6 0.00 4.45 4.45 92 1011.8
20260904035439 24 263 1.6 1.6 0.00 4.45 4.45 92 1011.8
20260904034938 25 263 0.0 1.6 0.00 4.45 4.45 91 1012.0
20260904034433 24 268 3.2 9.7 0.00 4.45 4.45 91 1012.1
20260904033929 24 290 1.6 3.2 0.00 4.45 4.45 92 1012.2
20260904033425 24 219 3.2 6.4 0.00 4.45 4.45 92 1012.3
20260904032921 24 230 1.6 3.2 0.00 4.45 4.45 92 1012.2
20260904032416 24 231 1.6 3.2 0.00 4.45 4.45 93 1012.3
20260904031915 23 297 3.2 3.2 0.00 4.45 4.45 95 1012.4
20260904031411 23 307 0.0 1.6 0.00 4.45 4.45 95 1012.4
20260904030907 23 307 0.0 0.0 0.00 4.45 4.45 96 1012.5
20260904030402 23 307 0.0 0.0 0.00 4.45 4.45 95 1012.7
20260904025857 23 307 0.0 0.0 0.00 4.45 4.45 96 1012.9
20260904025353 23 307 0.0 0.0 0.00 4.45 4.45 95 1013.0
20260904024853 23 307 0.0 0.0 0.00 4.45 4.45 95 1013.0
20260904024348 23 307 0.0 0.0 0.00 4.45 4.45 95 1013.1
20260904023845 23 307 0.0 1.6 0.00 4.45 4.45 95 1013.0
20260904023341 23 307 1.6 1.6 0.00 4.45 4.45 94 1012.7
20260904022839 23 307 1.6 1.6 0.00 4.45 4.45 94 1012.6
20260904022336 23 307 0.0 0.0 0.00 4.45 4.45 94 1012.4
20260904021833 23 307 0.0 0.0 0.00 4.45 4.45 94 1012.4
20260904021333 23 307 0.0 0.0 0.00 4.45 4.45 93 1012.4
20260904020828 23 307 1.6 1.6 0.00 4.45 4.45 93 1012.3
20260904020324 23 307 0.0 0.0 0.00 4.45 4.45 94 1012.2
20260904015822 23 307 0.0 0.0 0.00 4.45 4.45 93 1012.2
20260904015318 23 307 0.0 0.0 0.00 4.45 4.45 93 1012.2
20260904014816 23 307 0.0 0.0 0.00 4.45 4.45 93 1012.3
20260904014311 24 307 1.6 1.6 0.00 4.45 4.45 92 1012.2
20260904013807 24 307 0.0 0.0 0.00 4.45 4.45 91 1012.2
20260904013303 24 307 1.6 1.6 0.00 4.45 4.45 90 1012.1
20260904012759 24 307 0.0 0.0 0.00 4.45 4.45 89 1012.0
20260904012253 24 307 0.0 0.0 0.00 4.45 4.45 90 1011.8
20260904011752 25 307 0.0 1.6 0.00 4.45 4.45 90 1012.1
20260904011248 25 307 0.0 0.0 0.00 4.45 4.45 90 1012.1
20260904010748 25 307 0.0 0.0 0.00 4.45 4.45 89 1012.3
20260904010245 25 307 0.0 0.0 0.00 4.45 4.45 89 1012.6
20260904005745 25 307 0.0 0.0 0.00 4.45 4.45 88 1012.8
20260904005241 25 307 0.0 0.0 0.00 4.45 4.45 89 1012.6
20260904004736 25 307 0.0 0.0 0.00 4.45 4.45 89 1012.6
20260904004232 25 307 0.0 0.0 0.00 4.45 4.45 89 1012.7
20260904003732 25 307 0.0 0.0 0.00 4.45 4.45 89 1012.8
20260904003228 25 307 0.0 0.0 0.00 4.45 4.45 89 1012.6
20260904002724 25 307 0.0 0.0 0.00 4.45 4.45 90 1012.7
20260904002220 25 307 1.6 1.6 0.00 4.45 4.45 89 1012.7
20260904001714 25 307 1.6 1.6 0.00 4.45 4.45 88 1012.6
20260904001214 25 307 0.0 0.0 0.00 4.45 4.45 87 1012.5
20260904000709 25 307 0.0 0.0 0.00 4.45 4.45 86 1012.4
20260904000204 25 307 0.0 0.0 0.00 4.45 4.45 86 1012.5
20260903235703 25 307 0.0 0.0 0.00 4.45 4.45 84 1012.3
20260903235200 25 307 0.0 0.0 0.00 4.45 4.45 84 1012.2
20260903234654 25 307 0.0 0.0 0.00 4.45 4.45 84 1012.3
20260903234150 26 307 0.0 0.0 0.00 4.45 4.45 82 1012.3
20260903233646 26 307 0.0 0.0 0.00 4.45 4.45 82 1012.3
20260903233142 26 307 0.0 0.0 0.00 4.45 4.45 82 1012.0
20260903232636 26 307 0.0 0.0 0.00 4.45 4.45 82 1012.0
20260903232132 26 307 0.0 0.0 0.00 4.45 4.45 81 1012.3
20260903231631 26 307 0.0 0.0 0.00 4.45 4.45 79 1012.1
20260903231126 26 307 0.0 0.0 0.00 4.45 4.45 78 1012.1
20260903230622 27 307 0.0 0.0 0.00 4.45 4.45 77 1012.2
20260903230121 27 307 0.0 0.0 0.00 4.45 4.45 77 1012.1
20260903225618 27 307 0.0 0.0 0.00 4.45 4.45 76 1012.1
20260903225114 27 307 1.6 1.6 0.00 4.45 4.45 76 1012.1
20260903224610 27 307 0.0 0.0 0.00 4.45 4.45 74 1012.0
20260903224107 27 307 0.0 1.6 0.00 4.45 4.45 74 1012.1
20260903223607 27 307 1.6 1.6 0.00 4.45 4.45 75 1012.0
20260903223105 27 307 0.0 1.6 0.00 4.45 4.45 74 1012.0
20260903222600 28 307 3.2 3.2 0.00 4.45 4.45 74 1012.3
20260903222059 28 307 1.6 4.8 0.00 4.45 4.45 72 1011.8
20260903221555 29 307 1.6 3.2 0.00 4.45 4.45 70 1011.7
20260903221052 30 307 0.0 0.0 0.00 4.45 4.45 68 1011.7
20260903220551 30 307 0.0 1.6 0.00 4.45 4.45 67 1011.9
20260903220050 30 307 0.0 1.6 0.00 4.45 4.45 68 1011.8
20260903215550 30 307 1.6 1.6 0.00 4.45 4.45 65 1011.7
20260903215050 31 307 1.6 1.6 0.00 4.45 4.45 64 1011.8
20260903214549 31 305 3.2 4.8 0.00 4.45 4.45 63 1011.8
20260903214045 30 247 1.6 3.2 0.00 4.45 4.45 67 1011.8
20260903213540 30 246 1.6 1.6 0.00 4.45 4.45 67 1011.8
20260903213036 30 247 1.6 1.6 0.00 4.45 4.45 65 1011.8
20260903212532 31 267 3.2 3.2 0.00 4.45 4.45 63 1011.4
20260903212027 31 274 3.2 4.8 0.00 4.45 4.45 63 1011.6
20260903211521 31 248 3.2 3.2 0.00 4.45 4.45 62 1011.4
20260903211018 31 247 3.2 3.2 0.00 4.45 4.45 63 1011.5
20260903210513 30 247 1.6 3.2 0.00 4.45 4.45 66 1011.5
20260903210009 30 246 1.6 1.6 0.00 4.45 4.45 64 1011.6
20260903205508 31 213 1.6 1.6 0.00 4.45 4.45 62 1011.5
20260903205002 31 213 1.6 3.2 0.00 4.45 4.45 61 1011.6
20260903204458 31 213 1.6 3.2 0.00 4.45 4.45 57 1011.5
20260903203954 31 211 1.6 6.4 0.00 4.45 4.45 58 1011.5
20260903203449 30 233 1.6 4.8 0.00 4.45 4.45 58 1011.6
20260903202949 30 233 1.6 3.2 0.00 4.45 4.45 62 1011.6
20260903202445 30 233 1.6 3.2 0.00 4.45 4.45 60 1011.7
20260903201945 30 236 3.2 4.8 0.00 4.45 4.45 59 1011.7
20260903201440 30 254 3.2 9.7 0.00 4.45 4.45 61 1012.0
20260903200939 31 201 3.2 6.4 0.00 4.45 4.45 60 1011.7
20260903200434 31 237 3.2 3.2 0.00 4.45 4.45 64 1011.9
20260903195929 31 222 1.6 3.2 0.00 4.45 4.45 58 1011.9
20260903195426 31 209 3.2 3.2 0.00 4.45 4.45 59 1012.1
20260903194920 31 326 0.0 1.6 0.00 4.45 4.45 64 1012.1
20260903194416 31 257 3.2 4.8 0.00 4.45 4.45 65 1012.1
20260903193911 31 226 3.2 3.2 0.00 4.45 4.45 58 1012.1
20260903193408 31 228 6.4 9.7 0.00 4.45 4.45 58 1012.2
20260903192902 30 237 3.2 6.4 0.00 4.45 4.45 63 1012.4
20260903192358 30 256 1.6 3.2 0.00 4.45 4.45 66 1012.4
20260903191854 30 226 1.6 6.4 0.00 4.45 4.45 66 1012.4
20260903191350 30 229 3.2 11.3 0.00 4.45 4.45 66 1012.6
20260903190849 30 222 3.2 4.8 0.00 4.45 4.45 62 1012.6
20260903190344 30 217 3.2 4.8 0.00 4.45 4.45 66 1012.7
20260903185844 30 223 3.2 3.2 0.00 4.45 4.45 62 1012.7
20260903185344 30 226 3.2 6.4 0.00 4.45 4.45 61 1012.9
20260903184840 30 201 6.4 6.4 0.00 4.45 4.45 58 1012.9
20260903184337 30 215 3.2 4.8 0.00 4.45 4.45 62 1013.0
20260903183831 30 219 3.2 4.8 0.00 4.45 4.45 63 1012.9
20260903183326 30 190 3.2 4.8 0.00 4.45 4.45 63 1013.1
20260903182825 30 216 3.2 3.2 0.00 4.45 4.45 64 1013.1
20260903182319 30 222 3.2 6.4 0.00 4.45 4.45 65 1013.0
20260903181819 30 260 3.2 3.2 0.00 4.45 4.45 67 1013.3
20260903181314 30 331 3.2 11.3 0.00 4.45 4.45 65 1013.1
20260903180814 30 221 1.6 4.8 0.00 4.45 4.45 71 1013.2
20260903180314 30 219 3.2 3.2 0.00 4.45 4.45 65 1013.3
20260903175813 30 261 1.6 3.2 0.00 4.45 4.45 68 1013.4
20260903175313 30 249 3.2 6.4 0.00 4.45 4.45 68 1013.3
20260903174808 30 214 6.4 6.4 0.00 4.45 4.45 63 1013.3
20260903174303 30 226 6.4 6.4 0.00 4.45 4.45 63 1013.3
20260903173802 30 227 1.6 11.3 0.00 4.45 4.45 66 1013.5
20260903173258 29 232 1.6 4.8 0.00 4.45 4.45 69 1013.6
20260903172754 30 287 8.0 9.7 0.00 4.45 4.45 65 1013.4
20260903172248 29 256 1.6 3.2 0.00 4.45 4.45 71 1013.5
20260903171744 30 215 1.6 6.4 0.00 4.45 4.45 69 1013.9
20260903171239 28 232 3.2 4.8 0.00 4.45 4.45 71 1013.8
20260903170738 28 245 1.6 4.8 0.00 4.45 4.45 71 1014.1
20260903170234 28 229 1.6 3.2 0.00 4.45 4.45 72 1014.1
20260903165732 28 231 3.2 3.2 0.00 4.45 4.45 75 1014.2
20260903165227 28 244 3.2 3.2 0.00 4.45 4.45 73 1014.1
20260903164721 28 333 3.2 9.7 0.00 4.45 4.45 71 1014.2
20260903164217 27 291 3.2 4.8 0.00 4.45 4.45 73 1014.4
20260903163717 27 262 1.6 3.2 0.00 4.45 4.45 83 1014.5
20260903163213 26 260 1.6 4.8 0.00 4.45 4.45 78 1014.4
20260903162709 26 243 1.6 11.3 0.00 4.45 4.45 77 1014.5
20260903162205 27 288 3.2 12.9 0.00 4.45 4.45 77 1014.6
20260903161701 27 214 3.2 9.7 0.00 4.45 4.45 74 1014.7
20260903161155 26 207 1.6 4.8 0.00 4.45 4.45 78 1014.9
20260903160651 26 213 3.2 11.3 0.00 4.45 4.45 75 1015.0